Home > Weather > Werne > Past weeks

Flag for Germany Past Weather in Werne, North Rhine-Westphalia, Germany — Yesterday and Last 2 Weeks

Now
70 °F

Scattered showers. Broken clouds.


Feels Like: 70 °F
Forecast: 55 / 72 °F
Wind: 5 mph from Northeast

Location: Dortmund / Wickede

Current Time: May 30, 2016 at 6:34:26 PM

Latest Report: May 30, 2016 at 5:50 PM


Visibility: N/A

Pressure: 29.59 "Hg

Humidity: 83%

Dew Point: 64 °F

Location of WerneLocation

Past Weather in Werne — Graph

°F

Werne Temperature Yesterday

Maximum temperature yesterday: 66 °F (at 3:20 PM)
Minimum temperature yesterday: 59 °F (at 5:20 AM)
Average temperature yesterday: 63 °F

High & Low Weather Summary for the Past Weeks

 TemperatureHumidityPressure
High73 °F (May 21, 5:50 PM)100% (May 30, 11:20 AM)30.12 "Hg (May 30, 11:20 AM)
Low41 °F (May 16, 5:20 AM)37% (May 18, 1:50 PM)29.59 "Hg (May 30, 3:50 PM)
Average58 °F68%29.92 "Hg
* Reported May 15 5:20 PM — May 30 5:20 PM, Werne, Weather by CustomWeather, © 2016

Note: Actual official high and low records may vary slightly from our data, if they occured in-between our weather recording intervals... More about our weather records

Advertising

Werne Weather History for the Previous 24 Hours

Scroll right to see more
 ConditionsComfort  
Time TempWeatherWind HumidityBarometerVisibility
5:20 PM
Mon, May 30
68 °FPartly sunny.3 mph83%29.59 "HgN/A
4:50 PM68 °FPartly sunny.5 mph88%29.59 "Hg6 mi
4:20 PM66 °FFog.6 mph94%29.59 "Hg2 mi
3:50 PM64 °FSprinkles. Fog.2 mph94%29.59 "Hg1 mi
3:20 PM64 °FThundershowers. Partly sunny.6 mph94%29.62 "Hg1 mi
2:50 PM64 °FLight rain. Fog.2 mph94%29.62 "Hg1 mi
2:20 PM64 °FFog.2 mph94%29.62 "Hg1 mi
1:50 PM63 °FFog.No wind100%29.62 "Hg2 mi
12:50 PM61 °FDrizzle. Fog.7 mph100%29.62 "Hg1 mi
12:20 PM61 °FDrizzle. Fog.2 mph100%29.62 "Hg1 mi
11:50 AM61 °FDrizzle. Fog.7 mph94%29.62 "Hg1 mi
11:20 AM59 °FLight rain. Fog.8 mph100%29.62 "Hg1 mi
10:50 AM59 °FThundershowers. Fog.8 mph94%29.62 "Hg0 mi
10:20 AM59 °FLight rain. Fog.9 mph94%29.62 "Hg0 mi
9:50 AM59 °FDrizzle. Fog.9 mph94%29.62 "Hg0 mi
9:20 AM59 °FDrizzle. Fog.12 mph88%29.62 "Hg0 mi
8:50 AM59 °FDrizzle. Fog.9 mph88%29.62 "Hg0 mi
7:50 AM59 °FLight rain. Fog.9 mph94%29.65 "Hg1 mi
6:50 AM59 °FLight rain. Fog.5 mph94%29.62 "Hg2 mi
6:20 AM59 °FLight rain. Fog.10 mph94%29.65 "Hg2 mi
5:50 AM59 °FThunderstorms. Fog.5 mph94%29.65 "Hg1 mi
5:20 AM59 °FThundershowers. Low clouds.5 mph94%29.68 "Hg1 mi
9:50 PM
Sun, May 29
61 °FScattered clouds.6 mph83%29.74 "Hg6 mi
9:20 PM61 °FPartly sunny.8 mph83%29.74 "Hg6 mi
8:50 PM63 °FPartly sunny.7 mph77%29.74 "HgN/A
8:20 PM63 °FPartly sunny.8 mph77%29.74 "Hg6 mi
7:50 PM63 °FPartly sunny.7 mph77%29.71 "Hg6 mi
7:20 PM63 °FBroken clouds.8 mph77%29.71 "Hg6 mi
6:50 PM64 °FBroken clouds.9 mph78%29.71 "HgN/A
6:20 PM64 °FPartly sunny.8 mph78%29.71 "HgN/A
Weather by CustomWeather, © 2016

See weather overviewHow to use our weather pages